Year,Month,Day,Hour,Minute,Value (Times are PST for temperature in C)
2016,08,15,00,00,19.70
2016,08,15,00,01,19.80
2016,08,15,00,02,19.80
2016,08,15,00,03,19.80
2016,08,15,00,04,19.80
2016,08,15,00,05,19.90
2016,08,15,00,06,19.90
2016,08,15,00,07,19.90
2016,08,15,00,08,19.90
2016,08,15,00,09,19.90
2016,08,15,00,10,20.00
2016,08,15,00,11,20.00
2016,08,15,00,12,20.10
2016,08,15,00,13,20.20
2016,08,15,00,14,20.20
2016,08,15,00,15,20.20
2016,08,15,00,16,20.30
2016,08,15,00,17,20.30
2016,08,15,00,18,20.40
2016,08,15,00,19,20.50
2016,08,15,00,20,20.50
2016,08,15,00,21,20.60
2016,08,15,00,22,20.70
2016,08,15,00,23,20.80
2016,08,15,00,24,20.80
2016,08,15,00,25,20.90
2016,08,15,00,26,21.00
2016,08,15,00,27,21.10
2016,08,15,00,28,21.10
2016,08,15,00,29,21.20
2016,08,15,00,30,21.30
2016,08,15,00,31,21.30
2016,08,15,00,32,21.40
2016,08,15,00,33,21.40
2016,08,15,00,34,21.40
2016,08,15,00,35,21.40
2016,08,15,00,36,21.50
2016,08,15,00,37,21.50
2016,08,15,00,38,21.60
2016,08,15,00,39,21.60
2016,08,15,00,40,21.70
2016,08,15,00,41,21.70
2016,08,15,00,42,21.70
2016,08,15,00,43,21.70
2016,08,15,00,44,21.70
2016,08,15,00,45,21.70
2016,08,15,00,46,21.70
2016,08,15,00,47,21.70
2016,08,15,00,48,21.80
2016,08,15,00,49,21.80
2016,08,15,00,50,21.80
2016,08,15,00,51,21.80
2016,08,15,00,52,21.80
2016,08,15,00,53,21.80
2016,08,15,00,54,21.80
2016,08,15,00,55,21.80
2016,08,15,00,56,21.80
2016,08,15,00,57,21.80
2016,08,15,00,58,21.80
2016,08,15,00,59,21.80
2016,08,15,01,00,21.80
2016,08,15,01,01,21.80
2016,08,15,01,02,21.80
2016,08,15,01,03,21.80
2016,08,15,01,04,21.80
2016,08,15,01,05,21.80
2016,08,15,01,06,21.70
2016,08,15,01,07,21.70
2016,08,15,01,08,21.70
2016,08,15,01,09,21.70
2016,08,15,01,10,21.70
2016,08,15,01,11,21.60
2016,08,15,01,12,21.60
2016,08,15,01,13,21.60
2016,08,15,01,14,21.60
2016,08,15,01,15,21.60
2016,08,15,01,16,21.60
2016,08,15,01,17,21.60
2016,08,15,01,18,21.60
2016,08,15,01,19,21.50
2016,08,15,01,20,21.50
2016,08,15,01,21,21.50
2016,08,15,01,22,21.50
2016,08,15,01,23,21.40
2016,08,15,01,24,21.40
2016,08,15,01,25,21.40
2016,08,15,01,26,21.40
2016,08,15,01,27,21.40
2016,08,15,01,28,21.40
2016,08,15,01,29,21.40
2016,08,15,01,30,21.40
2016,08,15,01,31,21.30
2016,08,15,01,32,21.30
2016,08,15,01,33,21.30
2016,08,15,01,34,21.30
2016,08,15,01,35,21.30
2016,08,15,01,36,21.30
2016,08,15,01,37,21.30
2016,08,15,01,38,21.30
2016,08,15,01,39,21.20
2016,08,15,01,40,21.20
2016,08,15,01,41,21.20
2016,08,15,01,42,21.20
2016,08,15,01,43,21.20
2016,08,15,01,44,21.20
2016,08,15,01,45,21.20
2016,08,15,01,46,21.20
2016,08,15,01,47,21.20
2016,08,15,01,48,21.20
2016,08,15,01,49,21.20
2016,08,15,01,50,21.20
2016,08,15,01,51,21.20
2016,08,15,01,52,21.20
2016,08,15,01,53,21.20
2016,08,15,01,54,21.20
2016,08,15,01,55,21.20
2016,08,15,01,56,21.20
2016,08,15,01,57,21.20
2016,08,15,01,58,21.10
2016,08,15,01,59,21.10
2016,08,15,02,00,21.10
2016,08,15,02,01,21.10
2016,08,15,02,02,21.10
2016,08,15,02,03,21.10
2016,08,15,02,04,21.10
2016,08,15,02,05,21.00
2016,08,15,02,06,21.00
2016,08,15,02,07,21.00
2016,08,15,02,08,21.00
2016,08,15,02,09,21.00
2016,08,15,02,10,21.00
2016,08,15,02,11,21.00
2016,08,15,02,12,20.90
2016,08,15,02,13,20.90
2016,08,15,02,14,20.90
2016,08,15,02,15,20.90
2016,08,15,02,16,20.90
2016,08,15,02,17,20.90
2016,08,15,02,18,20.90
2016,08,15,02,19,20.80
2016,08,15,02,20,20.80
2016,08,15,02,21,20.80
2016,08,15,02,22,20.80
2016,08,15,02,23,20.80
2016,08,15,02,24,20.80
2016,08,15,02,25,20.80
2016,08,15,02,26,20.70
2016,08,15,02,27,20.70
2016,08,15,02,28,20.70
2016,08,15,02,29,20.70
2016,08,15,02,30,20.70
2016,08,15,02,31,20.70
2016,08,15,02,32,20.70
2016,08,15,02,33,20.60
2016,08,15,02,34,20.60
2016,08,15,02,35,20.60
2016,08,15,02,36,20.60
2016,08,15,02,37,20.60
2016,08,15,02,38,20.60
2016,08,15,02,39,20.60
2016,08,15,02,40,20.60
2016,08,15,02,41,20.60
2016,08,15,02,42,20.50
2016,08,15,02,43,20.50
2016,08,15,02,44,20.50
2016,08,15,02,45,20.50
2016,08,15,02,46,20.40
2016,08,15,02,47,20.40
2016,08,15,02,48,20.40
2016,08,15,02,49,20.40
2016,08,15,02,50,20.30
2016,08,15,02,51,20.30
2016,08,15,02,52,20.30
2016,08,15,02,53,20.30
2016,08,15,02,54,20.30
2016,08,15,02,55,20.30
2016,08,15,02,56,20.20
2016,08,15,02,57,20.20
2016,08,15,02,58,20.20
2016,08,15,02,59,20.20
2016,08,15,03,00,20.20
2016,08,15,03,01,20.20
2016,08,15,03,02,20.10
2016,08,15,03,03,20.10
2016,08,15,03,04,20.10
2016,08,15,03,05,20.10
2016,08,15,03,06,20.10
2016,08,15,03,07,20.10
2016,08,15,03,08,20.00
2016,08,15,03,09,20.00
2016,08,15,03,10,20.00
2016,08,15,03,11,20.00
2016,08,15,03,12,19.90
2016,08,15,03,13,19.90
2016,08,15,03,14,19.90
2016,08,15,03,15,19.90
2016,08,15,03,16,19.90
2016,08,15,03,17,19.90
2016,08,15,03,18,19.80
2016,08,15,03,19,19.80
2016,08,15,03,20,19.80
2016,08,15,03,21,19.80
2016,08,15,03,22,19.80
2016,08,15,03,23,19.80
2016,08,15,03,24,19.80
2016,08,15,03,25,19.70
2016,08,15,03,26,19.70
2016,08,15,03,27,19.70
2016,08,15,03,28,19.70
2016,08,15,03,29,19.70
2016,08,15,03,30,19.70
2016,08,15,03,31,19.70
2016,08,15,03,32,19.70
2016,08,15,03,33,19.70
2016,08,15,03,34,19.70
2016,08,15,03,35,19.70
2016,08,15,03,52,19.40
2016,08,15,03,53,19.40
2016,08,15,03,54,19.40
2016,08,15,03,55,19.40
2016,08,15,03,56,19.40
2016,08,15,03,57,19.40
2016,08,15,03,58,19.40
2016,08,15,03,59,19.40
2016,08,15,04,00,19.30
2016,08,15,04,01,19.30
2016,08,15,04,02,19.30
2016,08,15,04,03,19.30
2016,08,15,04,04,19.30
2016,08,15,04,05,19.30
2016,08,15,04,06,19.30
2016,08,15,04,07,19.30
2016,08,15,04,08,19.30
2016,08,15,04,09,19.30
2016,08,15,04,10,19.30
2016,08,15,04,11,19.30
2016,08,15,04,12,19.30
2016,08,15,04,13,19.30
2016,08,15,04,14,19.30
2016,08,15,04,15,19.30
2016,08,15,04,16,19.30
2016,08,15,04,17,19.20
2016,08,15,04,18,19.20
2016,08,15,04,19,19.20
2016,08,15,04,20,19.20
2016,08,15,04,21,19.20
2016,08,15,04,22,19.20
2016,08,15,04,23,19.20
2016,08,15,04,24,19.10
2016,08,15,04,25,19.10
2016,08,15,04,26,19.10
2016,08,15,04,27,19.10
2016,08,15,04,28,19.10
2016,08,15,04,29,19.10
2016,08,15,04,30,19.00
2016,08,15,04,31,19.00
2016,08,15,04,32,19.00
2016,08,15,04,33,19.00
2016,08,15,04,34,19.00
2016,08,15,04,35,19.00
2016,08,15,04,36,18.90
2016,08,15,04,37,18.90
2016,08,15,04,38,18.90
2016,08,15,04,39,18.90
2016,08,15,04,40,18.90
2016,08,15,04,41,18.90
2016,08,15,04,42,18.90
2016,08,15,04,43,18.80
2016,08,15,04,44,18.80
2016,08,15,04,45,18.80
2016,08,15,04,46,18.80
2016,08,15,04,47,18.80
2016,08,15,04,48,18.80
2016,08,15,04,49,18.70
2016,08,15,04,50,18.70
2016,08,15,04,51,18.70
2016,08,15,04,52,18.70
2016,08,15,04,53,18.70
2016,08,15,04,54,18.70
2016,08,15,04,55,18.70
2016,08,15,04,56,18.70
2016,08,15,04,57,18.70
2016,08,15,04,58,18.60
2016,08,15,04,59,18.60
2016,08,15,05,00,18.60
2016,08,15,05,01,18.60
2016,08,15,05,02,18.50
2016,08,15,05,03,18.50
2016,08,15,05,04,18.50
2016,08,15,05,05,18.40
2016,08,15,05,06,18.40
2016,08,15,05,07,18.40
2016,08,15,05,08,18.40
2016,08,15,05,09,18.40
2016,08,15,05,10,18.30
2016,08,15,05,11,18.30
2016,08,15,05,12,18.30
2016,08,15,05,13,18.30
2016,08,15,05,14,18.30
2016,08,15,05,15,18.30
2016,08,15,05,16,18.30
2016,08,15,05,17,18.30
2016,08,15,05,18,18.20
2016,08,15,05,19,18.20
2016,08,15,05,20,18.20
2016,08,15,05,21,18.20
2016,08,15,05,22,18.20
2016,08,15,05,23,18.20
2016,08,15,05,24,18.20
2016,08,15,05,25,18.20
2016,08,15,05,26,18.20
2016,08,15,05,27,18.20
2016,08,15,05,28,18.20
2016,08,15,05,29,18.20
2016,08,15,05,30,18.20
2016,08,15,05,31,18.20
2016,08,15,05,32,18.20
2016,08,15,05,33,18.20
2016,08,15,05,34,18.10
2016,08,15,05,35,18.10
2016,08,15,05,36,18.10
2016,08,15,05,37,18.00
2016,08,15,05,38,18.00
2016,08,15,05,39,18.00
2016,08,15,05,40,18.00
2016,08,15,05,41,17.90
2016,08,15,05,42,17.90
2016,08,15,05,43,17.90
2016,08,15,05,44,17.90
2016,08,15,05,45,17.90
2016,08,15,05,46,17.90
2016,08,15,05,47,17.90
2016,08,15,05,48,17.90
2016,08,15,05,49,17.80
2016,08,15,05,50,17.90
2016,08,15,05,51,17.90
2016,08,15,05,52,17.90
2016,08,15,05,53,17.90
2016,08,15,05,54,17.90
2016,08,15,05,55,17.90
2016,08,15,05,56,17.90
2016,08,15,05,57,17.90
2016,08,15,05,58,17.90
2016,08,15,05,59,17.90
2016,08,15,06,00,17.90
2016,08,15,06,01,17.90
2016,08,15,06,02,17.90
2016,08,15,06,03,17.90
2016,08,15,06,04,17.90
2016,08,15,06,05,17.90
2016,08,15,06,06,17.90
2016,08,15,06,07,17.90
2016,08,15,06,08,17.90
2016,08,15,06,09,17.90
2016,08,15,06,10,17.90
2016,08,15,06,11,17.90
2016,08,15,06,12,17.90
2016,08,15,06,13,18.00
2016,08,15,06,14,18.00
2016,08,15,06,15,18.00
2016,08,15,06,16,18.00
2016,08,15,06,17,18.00
2016,08,15,06,18,18.10
2016,08,15,06,19,18.10
2016,08,15,06,20,18.10
2016,08,15,06,21,18.10
2016,08,15,06,22,18.10
2016,08,15,06,23,18.10
2016,08,15,06,24,18.10
2016,08,15,06,25,18.10
2016,08,15,06,26,18.20
2016,08,15,06,27,18.20
2016,08,15,06,28,18.20
2016,08,15,06,29,18.30
2016,08,15,06,30,18.30
2016,08,15,06,31,18.30
2016,08,15,06,32,18.40
2016,08,15,06,33,18.40
2016,08,15,06,34,18.40
2016,08,15,06,35,18.50
2016,08,15,06,36,18.50
2016,08,15,06,37,18.60
2016,08,15,06,38,18.60
2016,08,15,06,39,18.60
2016,08,15,06,40,18.60
2016,08,15,06,41,18.60
2016,08,15,06,42,18.60
2016,08,15,06,43,18.70
2016,08,15,06,44,18.70
2016,08,15,06,45,18.70
2016,08,15,06,46,18.70
2016,08,15,06,47,18.70
2016,08,15,06,48,18.70
2016,08,15,06,49,18.70
2016,08,15,06,50,18.80
2016,08,15,06,51,18.80
2016,08,15,06,52,18.80
2016,08,15,06,53,18.80
2016,08,15,06,54,18.80
2016,08,15,06,55,18.80
2016,08,15,06,56,18.80
2016,08,15,06,57,18.80
2016,08,15,06,58,18.80
2016,08,15,06,59,18.90
2016,08,15,07,00,18.90
2016,08,15,07,01,18.90
2016,08,15,07,02,18.90
2016,08,15,07,03,18.90
2016,08,15,07,04,18.90
2016,08,15,07,05,18.90
2016,08,15,07,06,19.00
2016,08,15,07,07,19.00
2016,08,15,07,08,19.00
2016,08,15,07,09,19.10
2016,08,15,07,10,19.10
2016,08,15,07,11,19.10
2016,08,15,07,12,19.10
2016,08,15,07,13,19.10
2016,08,15,07,14,19.20
2016,08,15,07,15,19.20
2016,08,15,07,16,19.20
2016,08,15,07,17,19.20
2016,08,15,07,18,19.20
2016,08,15,07,19,19.20
2016,08,15,07,20,19.30
2016,08,15,07,21,19.30
2016,08,15,07,22,19.30
2016,08,15,07,23,19.30
2016,08,15,07,24,19.30
2016,08,15,07,25,19.40
2016,08,15,07,26,19.40
2016,08,15,07,27,19.40
2016,08,15,07,28,19.40
2016,08,15,07,29,19.40
2016,08,15,07,30,19.50
2016,08,15,07,31,19.50
2016,08,15,07,32,19.50
2016,08,15,07,33,19.50
2016,08,15,07,34,19.50
2016,08,15,07,35,19.50
2016,08,15,07,36,19.60
2016,08,15,07,37,19.50
2016,08,15,07,38,19.60
2016,08,15,07,39,19.60
2016,08,15,07,40,19.60
2016,08,15,07,41,19.60
2016,08,15,07,42,19.60
2016,08,15,07,43,19.60
2016,08,15,07,44,19.60
2016,08,15,07,45,19.60
2016,08,15,07,46,19.60
2016,08,15,07,47,19.60
2016,08,15,07,48,19.60
2016,08,15,07,49,19.60
2016,08,15,07,50,19.60
2016,08,15,07,51,19.60
2016,08,15,07,52,19.60
2016,08,15,07,53,19.60
2016,08,15,07,54,19.60
2016,08,15,07,55,19.60
2016,08,15,07,56,19.60
2016,08,15,07,57,19.60
2016,08,15,07,58,19.60
2016,08,15,07,59,19.70
2016,08,15,08,00,19.70
2016,08,15,08,01,19.70
2016,08,15,08,02,19.70
2016,08,15,08,03,19.80
2016,08,15,08,04,19.80
2016,08,15,08,05,19.90
2016,08,15,08,06,19.90
2016,08,15,08,07,19.90
2016,08,15,08,08,20.00
2016,08,15,08,09,20.00
2016,08,15,08,10,20.10
2016,08,15,08,11,20.10
2016,08,15,08,12,20.10
2016,08,15,08,13,20.10
2016,08,15,08,14,20.10
2016,08,15,08,15,20.00
2016,08,15,08,16,20.00
2016,08,15,08,17,20.00
2016,08,15,08,18,20.00
2016,08,15,08,19,20.00
2016,08,15,08,20,20.10
2016,08,15,08,21,20.10
2016,08,15,08,22,20.10
2016,08,15,08,23,20.10
2016,08,15,08,24,20.20
2016,08,15,08,25,20.20
2016,08,15,08,26,20.20
2016,08,15,08,27,20.20
2016,08,15,08,28,20.20
2016,08,15,08,29,20.20
2016,08,15,08,30,20.20
2016,08,15,08,31,20.20
2016,08,15,08,32,20.20
2016,08,15,08,33,20.10
2016,08,15,08,34,20.10
2016,08,15,08,35,20.10
2016,08,15,08,36,20.20
2016,08,15,08,37,20.20
2016,08,15,08,38,20.20
2016,08,15,08,39,20.20
2016,08,15,08,40,20.10
2016,08,15,08,41,20.10
2016,08,15,08,42,20.10
2016,08,15,08,43,20.10
2016,08,15,08,44,20.10
2016,08,15,08,45,20.10
2016,08,15,08,46,20.10
2016,08,15,08,47,20.10
2016,08,15,08,48,20.10
2016,08,15,08,49,20.10
2016,08,15,08,50,20.20
2016,08,15,08,51,20.10
2016,08,15,08,52,20.10
2016,08,15,08,53,20.10
2016,08,15,08,54,20.10
2016,08,15,08,55,20.20
2016,08,15,08,56,20.20
2016,08,15,08,57,20.20
2016,08,15,08,58,20.20
2016,08,15,08,59,20.20
2016,08,15,09,00,20.20
2016,08,15,09,01,20.20
2016,08,15,09,02,20.20
2016,08,15,09,03,20.20
2016,08,15,09,04,20.20
2016,08,15,09,05,20.30
2016,08,15,09,06,20.30
2016,08,15,09,07,20.30
2016,08,15,09,08,20.30
2016,08,15,09,09,20.30
2016,08,15,09,10,20.30
2016,08,15,09,11,20.30
2016,08,15,09,12,20.30
2016,08,15,09,13,20.30
2016,08,15,09,14,20.40
2016,08,15,09,15,20.40
2016,08,15,09,16,20.40
2016,08,15,09,17,20.40
2016,08,15,09,18,20.40
2016,08,15,09,19,20.40
2016,08,15,09,20,20.40
2016,08,15,09,21,20.40
2016,08,15,09,22,20.40
2016,08,15,09,23,20.40
2016,08,15,09,24,20.40
2016,08,15,09,25,20.40
2016,08,15,09,26,20.50
2016,08,15,09,27,20.40
2016,08,15,09,28,20.40
2016,08,15,09,29,20.40
2016,08,15,09,30,20.40
2016,08,15,09,31,20.40
2016,08,15,09,32,20.40
2016,08,15,09,33,20.50
2016,08,15,09,34,20.40
2016,08,15,09,35,20.40
2016,08,15,09,36,20.50
2016,08,15,09,37,20.50
2016,08,15,09,38,20.50
2016,08,15,09,39,20.50
2016,08,15,09,40,20.50
2016,08,15,09,41,20.50
2016,08,15,09,42,20.60
2016,08,15,09,43,20.50
2016,08,15,09,44,20.50
2016,08,15,09,45,20.50
2016,08,15,09,46,20.40
2016,08,15,09,47,20.40
2016,08,15,09,48,20.50
2016,08,15,09,49,20.50
2016,08,15,09,50,20.50
2016,08,15,09,51,20.50
2016,08,15,09,52,20.60
2016,08,15,09,53,20.60
2016,08,15,09,54,20.70
2016,08,15,09,55,20.70
2016,08,15,09,56,20.80
2016,08,15,09,57,20.80
2016,08,15,09,58,20.80
2016,08,15,09,59,20.90
2016,08,15,10,00,20.90
2016,08,15,10,01,20.90
2016,08,15,10,02,20.90
2016,08,15,10,03,20.80
2016,08,15,10,04,20.80
2016,08,15,10,05,20.80
2016,08,15,10,06,20.90
2016,08,15,10,07,20.90
2016,08,15,10,08,20.90
2016,08,15,10,09,20.90
2016,08,15,10,10,20.80
2016,08,15,10,11,20.80
2016,08,15,10,12,20.80
2016,08,15,10,13,20.80
2016,08,15,10,14,20.70
2016,08,15,10,15,20.70
2016,08,15,10,16,20.60
2016,08,15,10,17,20.60
2016,08,15,10,18,20.70
2016,08,15,10,19,20.70
2016,08,15,10,20,20.70
2016,08,15,10,21,20.60
2016,08,15,10,22,20.60
2016,08,15,10,23,20.60
2016,08,15,10,24,20.60
2016,08,15,10,25,20.60
2016,08,15,10,26,20.70
2016,08,15,10,27,20.70
2016,08,15,10,28,20.70
2016,08,15,10,29,20.70
2016,08,15,10,30,20.70
2016,08,15,10,31,20.70
2016,08,15,10,32,20.70
2016,08,15,10,33,20.70
2016,08,15,10,34,20.70
2016,08,15,10,35,20.70
2016,08,15,10,36,20.70
2016,08,15,10,37,20.60
2016,08,15,10,38,20.70
2016,08,15,10,39,20.70
2016,08,15,10,40,20.70
2016,08,15,10,41,20.70
2016,08,15,10,42,20.70
2016,08,15,10,43,20.70
2016,08,15,10,44,20.70
2016,08,15,10,45,20.70
2016,08,15,10,46,20.80
2016,08,15,10,47,20.70
2016,08,15,10,48,20.70
2016,08,15,10,49,20.70
2016,08,15,10,50,20.70
2016,08,15,10,51,20.70
2016,08,15,10,52,20.60
2016,08,15,10,53,20.60
2016,08,15,10,54,20.60
2016,08,15,10,55,20.60
2016,08,15,10,56,20.60
2016,08,15,10,57,20.60
2016,08,15,10,58,20.70
2016,08,15,10,59,20.70
2016,08,15,11,00,20.70
2016,08,15,11,01,20.80
2016,08,15,11,02,20.80
2016,08,15,11,03,20.80
2016,08,15,11,04,20.90
2016,08,15,11,05,21.00
2016,08,15,11,06,21.00
2016,08,15,11,07,21.10
2016,08,15,11,08,21.10
2016,08,15,11,09,21.20
2016,08,15,11,10,21.20
2016,08,15,11,11,21.20
2016,08,15,11,12,21.20
2016,08,15,11,13,21.20
2016,08,15,11,14,21.20
2016,08,15,11,15,21.20
2016,08,15,11,16,21.20
2016,08,15,11,17,21.30
2016,08,15,11,18,21.30
2016,08,15,11,19,21.30
2016,08,15,11,20,21.30
2016,08,15,11,21,21.30
2016,08,15,11,22,21.30
2016,08,15,11,23,21.30
2016,08,15,11,24,21.30
2016,08,15,11,25,21.30
2016,08,15,11,26,21.30
2016,08,15,11,27,21.30
2016,08,15,11,28,21.20
2016,08,15,11,29,21.20
2016,08,15,11,30,21.30
2016,08,15,11,31,21.30
2016,08,15,11,32,21.30
2016,08,15,11,33,21.30
2016,08,15,11,34,21.30
2016,08,15,11,35,21.30
2016,08,15,11,36,21.30
2016,08,15,11,37,21.30
2016,08,15,11,38,21.30
2016,08,15,11,39,21.30
2016,08,15,11,40,21.30
2016,08,15,11,41,21.30
2016,08,15,11,42,21.20
2016,08,15,11,43,21.20
2016,08,15,11,44,21.20
2016,08,15,11,45,21.10
2016,08,15,11,46,21.10
2016,08,15,11,47,21.10
2016,08,15,11,48,21.10
2016,08,15,11,49,21.00
2016,08,15,11,50,20.90
2016,08,15,11,51,20.90
2016,08,15,11,52,20.80
2016,08,15,11,53,20.90
2016,08,15,11,54,20.90
2016,08,15,11,55,21.00
2016,08,15,11,56,21.10
2016,08,15,11,57,21.10
2016,08,15,11,58,21.00
2016,08,15,11,59,21.00
2016,08,15,12,00,21.10
2016,08,15,12,01,21.10
2016,08,15,12,02,21.20
2016,08,15,12,03,21.20
2016,08,15,12,04,21.20
2016,08,15,12,05,21.20
2016,08,15,12,06,21.10
2016,08,15,12,07,21.20
2016,08,15,12,08,21.20
2016,08,15,12,09,21.30
2016,08,15,12,10,21.40
2016,08,15,12,11,21.50
2016,08,15,12,12,21.50
2016,08,15,12,13,21.40
2016,08,15,12,14,21.30
2016,08,15,12,15,21.30
2016,08,15,12,16,21.30
2016,08,15,12,17,21.30
2016,08,15,12,18,21.20
2016,08,15,12,19,21.20
2016,08,15,12,20,21.30
2016,08,15,12,21,21.30
2016,08,15,12,22,21.40
2016,08,15,12,23,21.40
2016,08,15,12,24,21.50
2016,08,15,12,25,21.50
2016,08,15,12,26,21.60
2016,08,15,12,27,21.60
2016,08,15,12,28,21.60
2016,08,15,12,29,21.70
2016,08,15,12,30,21.70
2016,08,15,12,31,21.70
2016,08,15,12,32,21.70
2016,08,15,12,33,21.70
2016,08,15,12,34,21.60
2016,08,15,12,35,21.60
2016,08,15,12,36,21.60
2016,08,15,12,37,21.70
2016,08,15,12,38,21.70
2016,08,15,12,39,21.70
2016,08,15,12,40,21.90
2016,08,15,12,41,22.00
2016,08,15,12,42,22.00
2016,08,15,12,43,22.10
2016,08,15,12,44,22.10
2016,08,15,12,45,22.20
2016,08,15,12,46,22.10
2016,08,15,12,47,22.10
2016,08,15,12,48,22.00
2016,08,15,12,49,21.90
2016,08,15,12,50,21.80
2016,08,15,12,51,21.80
2016,08,15,12,52,21.80
2016,08,15,12,53,21.70
2016,08,15,12,54,21.60
2016,08,15,12,55,21.60
2016,08,15,12,56,21.60
2016,08,15,12,57,21.60
2016,08,15,12,58,21.50
2016,08,15,12,59,21.50
2016,08,15,13,00,21.50
2016,08,15,13,01,21.50
2016,08,15,13,02,21.50
2016,08,15,13,03,21.50
2016,08,15,13,04,21.40
2016,08,15,13,05,21.40
2016,08,15,13,06,21.50
2016,08,15,13,07,21.50
2016,08,15,13,08,21.50
2016,08,15,13,09,21.40
2016,08,15,13,10,21.40
2016,08,15,13,11,21.40
2016,08,15,13,12,21.40
2016,08,15,13,13,21.40
2016,08,15,13,14,21.40
2016,08,15,13,15,21.40
2016,08,15,13,16,21.40
2016,08,15,13,17,21.40
2016,08,15,13,18,21.50
2016,08,15,13,19,21.60
2016,08,15,13,20,21.60
2016,08,15,13,21,21.70
2016,08,15,13,22,21.80
2016,08,15,13,23,21.90
2016,08,15,13,24,21.90
2016,08,15,13,25,22.00
2016,08,15,13,26,22.10
2016,08,15,13,27,22.10
2016,08,15,13,28,22.10
2016,08,15,13,29,22.20
2016,08,15,13,30,22.20
2016,08,15,13,31,22.30
2016,08,15,13,32,22.30
2016,08,15,13,33,22.20
2016,08,15,13,34,22.20
2016,08,15,13,35,22.30
2016,08,15,13,36,22.30
2016,08,15,13,37,22.30
2016,08,15,13,38,22.40
2016,08,15,13,39,22.40
2016,08,15,13,40,22.50
2016,08,15,13,41,22.60
2016,08,15,13,42,22.70
2016,08,15,13,43,22.70
2016,08,15,13,44,22.70
2016,08,15,13,45,22.80
2016,08,15,13,46,22.90
2016,08,15,13,47,22.90
2016,08,15,13,48,22.90
2016,08,15,13,49,22.90
2016,08,15,13,50,22.90
2016,08,15,13,51,22.90
2016,08,15,13,52,23.00
2016,08,15,13,53,23.10
2016,08,15,13,54,23.10
2016,08,15,13,55,23.20
2016,08,15,13,56,23.20
2016,08,15,13,57,23.20
2016,08,15,13,58,23.20
2016,08,15,13,59,23.20
2016,08,15,14,00,23.10
2016,08,15,14,01,23.10
2016,08,15,14,02,23.20
2016,08,15,14,03,23.20
2016,08,15,14,04,23.20
2016,08,15,14,05,23.20
2016,08,15,14,06,23.20
2016,08,15,14,07,23.20
2016,08,15,14,08,23.20
2016,08,15,14,09,23.20
2016,08,15,14,10,23.10
2016,08,15,14,11,23.10
2016,08,15,14,12,23.10
2016,08,15,14,13,23.10
2016,08,15,14,14,23.20
2016,08,15,14,15,23.20
2016,08,15,14,16,23.30
2016,08,15,14,17,23.20
2016,08,15,14,18,23.20
2016,08,15,14,19,23.20
2016,08,15,14,20,23.30
2016,08,15,14,21,23.30
2016,08,15,14,22,23.20
2016,08,15,14,23,23.10
2016,08,15,14,24,23.10
2016,08,15,14,25,23.20
2016,08,15,14,26,23.20
2016,08,15,14,27,23.20
2016,08,15,14,28,23.30
2016,08,15,14,29,23.30
2016,08,15,14,30,23.40
2016,08,15,14,31,23.40
2016,08,15,14,32,23.40
2016,08,15,14,33,23.30
2016,08,15,14,34,23.30
2016,08,15,14,35,23.20
2016,08,15,14,36,23.20
2016,08,15,14,37,23.20
2016,08,15,14,38,23.20
2016,08,15,14,39,23.20
2016,08,15,14,40,23.20
2016,08,15,14,41,23.40
2016,08,15,14,42,23.50
2016,08,15,14,43,23.60
2016,08,15,14,44,23.60
2016,08,15,14,45,23.70
2016,08,15,14,46,23.70
2016,08,15,14,47,23.70
2016,08,15,14,48,23.70
2016,08,15,14,49,23.70
2016,08,15,14,50,23.60
2016,08,15,14,51,23.60
2016,08,15,14,52,23.70
2016,08,15,14,53,23.70
2016,08,15,14,54,23.70
2016,08,15,14,55,23.70
2016,08,15,14,56,23.60
2016,08,15,14,57,23.60
2016,08,15,14,58,23.60
2016,08,15,14,59,23.60
2016,08,15,15,00,23.60
2016,08,15,15,01,23.70
2016,08,15,15,02,23.70
2016,08,15,15,03,23.70
2016,08,15,15,04,23.70
2016,08,15,15,05,23.70
2016,08,15,15,06,23.70
2016,08,15,15,07,23.70
2016,08,15,15,08,23.80
2016,08,15,15,09,23.80
2016,08,15,15,10,23.80
2016,08,15,15,11,23.80
2016,08,15,15,12,23.90
2016,08,15,15,13,24.00
2016,08,15,15,14,24.10
2016,08,15,15,15,24.20
2016,08,15,15,16,24.20
2016,08,15,15,17,24.30
2016,08,15,15,18,24.30
2016,08,15,15,19,24.30
2016,08,15,15,20,24.30
2016,08,15,15,21,24.20
2016,08,15,15,22,24.10
2016,08,15,15,23,24.00
2016,08,15,15,24,23.90
2016,08,15,15,25,23.80
2016,08,15,15,26,23.70
2016,08,15,15,27,23.70
2016,08,15,15,28,23.60
2016,08,15,15,29,23.60
2016,08,15,15,30,23.60
2016,08,15,15,31,23.70
2016,08,15,15,32,23.70
2016,08,15,15,33,23.80
2016,08,15,15,34,23.90
2016,08,15,15,35,24.00
2016,08,15,15,36,24.10
2016,08,15,15,37,24.10
2016,08,15,15,38,24.10
2016,08,15,15,39,24.10
2016,08,15,15,40,24.10
2016,08,15,15,41,24.10
2016,08,15,15,42,24.10
2016,08,15,15,43,24.10
2016,08,15,15,44,24.00
2016,08,15,15,45,24.00
2016,08,15,15,46,24.00
2016,08,15,15,47,24.00
2016,08,15,15,48,24.00
2016,08,15,15,49,24.00
2016,08,15,15,50,24.00
2016,08,15,15,51,24.10
2016,08,15,15,52,24.10
2016,08,15,15,53,24.20
2016,08,15,15,54,24.20
2016,08,15,15,55,24.20
2016,08,15,15,56,24.20
2016,08,15,15,57,24.20
2016,08,15,15,58,24.20
2016,08,15,15,59,24.20
2016,08,15,16,00,24.10
2016,08,15,16,01,24.10
2016,08,15,16,02,24.10
2016,08,15,16,03,24.00
2016,08,15,16,04,24.10
2016,08,15,16,05,24.10
2016,08,15,16,06,24.10
2016,08,15,16,07,24.20
2016,08,15,16,08,24.20
2016,08,15,16,09,24.30
2016,08,15,16,10,24.30
2016,08,15,16,11,24.20
2016,08,15,16,12,24.20
2016,08,15,16,13,24.20
2016,08,15,16,14,24.30
2016,08,15,16,15,24.30
2016,08,15,16,16,24.30
2016,08,15,16,17,24.30
2016,08,15,16,18,24.30
2016,08,15,16,19,24.30
2016,08,15,16,20,24.30
2016,08,15,16,21,24.20
2016,08,15,16,22,24.20
2016,08,15,16,23,24.10
2016,08,15,16,24,24.10
2016,08,15,16,25,24.00
2016,08,15,16,26,24.00
2016,08,15,16,27,24.00
2016,08,15,16,28,24.00
2016,08,15,16,29,24.10
2016,08,15,16,30,24.10
2016,08,15,16,31,24.10
2016,08,15,16,32,24.20
2016,08,15,16,33,24.20
2016,08,15,16,34,24.30
2016,08,15,16,35,24.30
2016,08,15,16,36,24.40
2016,08,15,16,37,24.40
2016,08,15,16,38,24.50
2016,08,15,16,39,24.60
2016,08,15,16,40,24.60
2016,08,15,16,41,24.70
2016,08,15,16,42,24.70
2016,08,15,16,43,24.80
2016,08,15,16,44,24.80
2016,08,15,16,45,24.90
2016,08,15,16,46,24.90
2016,08,15,16,47,25.00
2016,08,15,16,48,25.10
2016,08,15,16,49,25.10
2016,08,15,16,50,25.20
2016,08,15,16,51,25.20
2016,08,15,16,52,25.30
2016,08,15,16,53,25.30
2016,08,15,16,54,25.40
2016,08,15,16,55,25.50
2016,08,15,16,56,25.50
2016,08,15,16,57,25.60
2016,08,15,16,58,25.70
2016,08,15,16,59,25.70
2016,08,15,17,00,25.70
2016,08,15,17,01,25.70
2016,08,15,17,02,25.70
2016,08,15,17,03,25.70
2016,08,15,17,04,25.70
2016,08,15,17,05,25.70
2016,08,15,17,06,25.60
2016,08,15,17,07,25.70
2016,08,15,17,08,25.60
2016,08,15,17,09,25.60
2016,08,15,17,10,25.50
2016,08,15,17,11,25.50
2016,08,15,17,12,25.40
2016,08,15,17,13,25.40
2016,08,15,17,14,25.40
2016,08,15,17,15,25.40
2016,08,15,17,16,25.40
2016,08,15,17,17,25.50
2016,08,15,17,18,25.50
2016,08,15,17,19,25.60
2016,08,15,17,20,25.70
2016,08,15,17,21,25.70
2016,08,15,17,22,25.80
2016,08,15,17,23,25.80
2016,08,15,17,24,25.80
2016,08,15,17,25,25.90
2016,08,15,17,26,25.90
2016,08,15,17,27,25.90
2016,08,15,17,28,25.90
2016,08,15,17,29,26.00
2016,08,15,17,30,26.00
2016,08,15,17,31,26.10
2016,08,15,17,32,26.10
2016,08,15,17,33,26.10
2016,08,15,17,34,26.10
2016,08,15,17,35,26.10